PDT,Max TemperatureF,Mean TemperatureF,Min TemperatureF,Max Dew PointF,MeanDew PointF,Min DewpointF,Max Humidity, Mean Humidity, Min Humidity, Max Sea Level PressureIn, Mean Sea Level PressureIn, Min Sea Level PressureIn, Max VisibilityMiles, Mean VisibilityMiles, Min VisibilityMiles, Max Wind SpeedMPH, Mean Wind SpeedMPH, Max Gust SpeedMPH,PrecipitationIn, CloudCover, Events, WindDirDegrees
2013-10-1,60,51,41,45,41,37,93,69,44,30.19,30.04,29.96,10,10,4,20,4,26,0.03,6,Rain,144
2013-10-2,59,47,35,41,37,34,93,68,43,30.20,30.09,29.99,10,10,10,16,4,20,0.00,1,,285
2013-10-3,59,51,43,40,38,36,76,60,44,30.40,30.22,30.02,10,10,10,18,8,24,0.00,4,,302
2013-10-4,62,49,35,39,33,24,92,59,25,30.54,30.48,30.43,10,10,10,8,2,9,0.00,0,,138
2013-10-5,67,52,37,38,36,31,85,60,34,30.48,30.39,30.28,10,10,10,9,4,16,0.00,0,,96
2013-10-6,76,61,46,40,37,34,66,45,23,30.27,30.09,29.94,10,10,10,16,8,20,0.00,0,,89
2013-10-7,64,53,41,43,38,34,82,59,36,29.97,29.94,29.88,10,9,2,30,5,43,0.00,3,,273
2013-10-8,53,48,43,45,40,35,89,73,56,30.00,29.95,29.93,10,10,6,12,4,14,0.05,6,Rain,124
2013-10-9,58,48,37,42,39,36,100,76,51,30.09,30.02,29.94,10,9,0,12,3,13,0.00,2,Fog,259
2013-10-10,60,50,39,42,38,35,92,68,43,29.99,29.93,29.89,10,10,8,9,2,15,0.00,6,,203
2013-10-11,59,53,46,43,40,37,77,61,44,30.12,30.06,29.99,10,10,9,6,2,10,0.00,8,,143
2013-10-12,58,51,43,42,40,39,89,70,51,30.14,30.06,30.01,10,9,5,12,3,15,0.00,7,,252
2013-10-13,61,50,38,43,37,30,93,65,36,30.31,30.22,30.14,10,10,6,13,4,17,0.00,3,,211
2013-10-14,60,47,33,36,33,30,92,65,37,30.42,30.38,30.32,10,9,2,8,2,9,0.00,0,,278
2013-10-15,59,46,32,36,33,29,89,65,40,30.45,30.35,30.20,10,10,9,7,2,13,0.00,0,,133
2013-10-16,63,51,38,38,33,28,79,56,33,30.20,30.17,30.12,10,8,2,8,2,13,0.00,2,,186
2013-10-17,62,49,36,37,33,31,79,57,34,30.30,30.25,30.20,10,9,5,13,2,16,0.00,2,,248
2013-10-18,61,47,33,37,34,30,89,64,39,30.36,30.29,30.22,10,9,4,8,2,21,0.00,0,,136
2013-10-19,63,49,35,38,36,34,92,63,34,30.22,30.16,30.09,10,10,8,7,2,14,0.00,0,,102
2013-10-20,65,51,36,40,37,33,85,61,37,30.22,30.17,30.12,10,9,5,7,1,8,0.00,0,,113
2013-10-21,68,55,41,41,39,37,89,65,40,30.26,30.21,30.16,10,9,6,9,3,23,0.00,0,,90
2013-10-22,68,54,40,43,41,38,92,66,39,30.24,30.17,30.09,10,8,4,7,3,13,0.00,0,,117
2013-10-23,67,53,38,43,40,36,92,66,40,30.18,30.12,30.07,10,9,5,7,1,8,0.00,0,,147
2013-10-24,64,51,38,41,39,37,92,66,39,30.17,30.12,30.07,10,9,6,6,1,14,0.00,0,,148
2013-10-25,66,52,37,41,39,37,93,68,43,30.28,30.23,30.14,10,10,7,6,1,8,0.00,0,,147
2013-10-26,63,50,37,41,39,36,92,68,43,30.34,30.24,30.09,10,10,6,6,1,12,0.00,0,,160
2013-10-27,57,47,36,42,39,36,100,76,51,30.06,29.84,29.71,10,7,0,17,4,23,T,4,Fog-Rain,279
2013-10-28,55,46,36,30,20,18,50,36,22,29.88,29.81,29.77,10,10,9,26,11,32,0.00,1,,59
2013-10-29,51,39,27,23,20,18,63,48,32,30.06,30.01,29.91,10,10,10,9,2,12,0.00,0,,210
2013-10-30,52,39,25,27,24,19,75,55,35,30.14,30.10,30.06,10,10,10,7,1,8,0.00,1,,275
2013-10-31,52,44,35,39,35,25,92,76,59,30.22,30.14,30.09,10,9,6,9,1,21,0.01,5,Rain,91